Regional Weather Roundup
Issued by NWS

Home | Current Version | Previous Version | Text Only | Print | Product List | Glossary On
Versions: 1 2 3 4 5 6 7 8 9 10 11 12 13 14 15 16 17 18 19 20 21 22 23 24 25 26 27 28 29 30 31 32 33 34 35 36 37 38 39 40 41 42 43 44 45 46 47 48 49 50
000
ASUS46 KPQR 031910
RWROR

OREGON REGIONAL WEATHER ROUNDUP
NATIONAL WEATHER SERVICE PORTLAND OR
1200 PM PDT WED JUN 03 2015

NOTE: "FAIR" INDICATES FEW OR NO CLOUDS BELOW 12,000 FEET WITH
NO SIGNIFICANT WEATHER AND/OR OBSTRUCTIONS TO VISIBILITY.

ORZ001>013-032000-
NORTHWEST OREGON


CITY           SKY/WX    TMP DP  RH WIND       PRES   REMARKS
ASTORIA        PTSUNNY   63  51  65 W10       30.09S
NEWPORT        MOSUNNY   55  54  94 W5        30.14S
PORTLAND       CLOUDY    61  52  72 NE3       30.08F
VANCOUVER WA   CLOUDY    62  52  69 VRB3      30.08S
SCAPPOOSE      CLOUDY    59  51  75 N9        30.07S
HILLSBORO      CLOUDY    61  52  72 SW5       30.08S
AURORA         CLOUDY    61  53  75 N6        30.09S
MCMINNVILLE    CLOUDY    63  52  67 VRB5      30.08F
SALEM          PTSUNNY   64  49  57 N6        30.06F
CORVALLIS      CLOUDY    63  50  63 NW6       30.09S
EUGENE         PTSUNNY   63  50  62 NW12      30.08S
$$

ORZ021-028-032000-
SOUTHWEST OREGON


CITY           SKY/WX    TMP DP  RH WIND       PRES   REMARKS
NORTH BEND     CLOUDY    59  55  88 N9        30.12R
BROOKINGS      MOSUNNY   65  55  69 NW9       30.02F
ROSEBURG         N/A    N/A N/A N/A MISG      30.06F
SEXTON SUMMIT  CLOUDY    47  46  97 N6        30.06S
MEDFORD        PTSUNNY   65  46  50 N7        30.02F
$$

ORZ014>016-041-032000-
COLUMBIA GORGE


CITY           SKY/WX    TMP DP  RH WIND       PRES   REMARKS
TROUTDALE      CLOUDY    58  53  84 CALM      30.08S
THE DALLES     SUNNY     72  45  37 W12G22    30.00F
$$

ORZ029>031-041-044-049-050-061>064-502-503-505>511-032000-
EASTERN OREGON


CITY           SKY/WX    TMP DP  RH WIND       PRES   REMARKS
REDMOND        PTSUNNY   61  40  45 N6        30.02F
BEND           MOSUNNY   57  39  51 W6        30.03S
PRINEVILLE     PTSUNNY   57  41  54 CALM      30.02F
KLAMATH FALLS  MOSUNNY   63  40  42 MISG      30.01F
LAKEVIEW       MOSUNNY   64  37  36 SW6       30.02F
HERMISTON      SUNNY     71  44  37 W10       29.97F
PENDLETON      MOSUNNY   67  42  40 W9G21     29.98F
JOHN DAY       SUNNY     60  42  51 W5        30.02F
MEACHAM        CLOUDY    55  41  59 CALM      30.03F
LA GRANDE      MOSUNNY   63  41  45 N7        29.99F
BAKER CITY     MOSUNNY   62  46  55 N8        30.00F
BURNS          MOSUNNY   62  32  32 MISG      30.01F
ROME             N/A     66  39  37 CALM      29.97F
ONTARIO        MOSUNNY   69  47  45 VRB5      29.96F
$$



USA.gov is the U.S. government's official web portal to all federal, state and local government web resources and services.